Vineland (AU8), Ontario

9:26 AM EDT on July 27, 2017 (GMT -0400)
Vineland (AU8)

Weather History for CXVN - October, 2013

Change the Weather History Date:

Thursday, October 31, 2013

  Actual Average (CYSN) Record (CYSN)
Temperature  
Mean Temperature 53 °F -  
Max Temperature 67 °F 50 °F 69 °F (2003)
Min Temperature 39 °F 38 °F 26 °F (2002)
Degree Days  
Heating Degree Days 12    
Growing Degree Days 3 (Base 50)    
Moisture  
Dew Point 51 °F    
Average Humidity 85    
Maximum Humidity 96    
Minimum Humidity 59    
Precipitation  
Precipitation 0.16 in - - ()
Sea Level Pressure  
Sea Level Pressure 29.70 in    
Wind  
Wind Speed 8 mph ()    
Max Wind Speed 25 mph    
Max Gust Speed 41 mph    
Averages and records for this station are not official NWS values.
T = Trace of Precipitation, MM = Missing Value Source: Averaged Metar Reports

Daily Weather History Graph

Daily Weather History Graph

Search for Another Location

Airport or City:

Trip Planner

Search our weather history database for the weather conditions in past years. The results will help you decide how hot, cold, wet, or windy it might be!

Date:

Astronomy

Oct. 31, 2013 Rise Set
Actual Time 7:51 AM EDT 6:10 PM EDT
Civil Twilight 7:21 AM EDT 6:39 PM EDT
Nautical Twilight 6:48 AM EDT 7:13 PM EDT
Astronomical Twilight 6:15 AM EDT 7:46 PM EDT
Moon 4:34 AM EDT (10/31) 4:31 PM EDT (10/31)
Length of Visible Light 11h 17m
Length of Day
10h 18m
Waning Crescent, 10% of the Moon is Illuminated
Oct 31
Waning Crescent
Nov 3
New
Nov 10
First Quarter
Nov 17
Full
Nov 25
Last Quarter

Hourly Weather History & Observations

Time (EDT) Temp. Dew Point Humidity Pressure Visibility Wind Dir Wind Speed Gust Speed Precip Events Conditions
12:00 AM 39.0 °F 37.2 °F 93% 30.04 in - SW 1.2 mph - N/A   Unknown
1:00 AM 39.7 °F 37.9 °F 93% 30.01 in - WSW 2.3 mph - N/A   Unknown
2:00 AM 41 °F 39 °F 91% 29.99 in - NW 2.3 mph - -  
2:00 AM 41.0 °F 39.2 °F 93% 29.99 in - NW 2.3 mph - N/A   Unknown
3:00 AM 42.8 °F 41.2 °F 94% 29.95 in - Calm Calm - N/A   Unknown
4:00 AM 44.2 °F 42.6 °F 94% 29.91 in - East 1.2 mph - N/A   Unknown
5:00 AM 46.2 °F 44.6 °F 94% 29.89 in - NW 2.3 mph - N/A   Unknown
6:00 AM 46.0 °F 44.6 °F 95% 29.86 in - SSW 2.3 mph - 0.12 in   Unknown
7:00 AM 47.1 °F 45.9 °F 95% 29.82 in - South 1.2 mph - 0.16 in   Unknown
8:00 AM 57 °F 56 °F 96% 29.78 in - SSW 8.1 mph - -  
8:00 AM 57.2 °F 56.1 °F 96% 29.78 in - SSW 8.1 mph - 0.12 in   Unknown
9:00 AM 60.1 °F 57.6 °F 91% 29.77 in - SW 12.7 mph 21.9 mph 0.04 in   Unknown
10:00 AM 61.3 °F 57.9 °F 89% 29.75 in - SW 12.7 mph 19.6 mph 0.04 in   Unknown
11:00 AM 62.8 °F 58.1 °F 85% 29.73 in - SW 16.1 mph 21.9 mph N/A   Unknown
12:00 PM 64.9 °F 57.0 °F 75% 29.69 in - SW 13.8 mph 23.0 mph N/A   Unknown
1:00 PM 66.2 °F 57.0 °F 72% 29.67 in - SW 17.3 mph 26.5 mph N/A   Unknown
2:00 PM 67 °F 56 °F 59% 29.63 in - SW 18.4 mph - -  
2:00 PM 66.6 °F 56.1 °F 69% 29.63 in - SW 18.4 mph 27.6 mph N/A   Unknown
3:00 PM 65.3 °F 56.8 °F 74% 29.60 in - SW 17.3 mph 27.6 mph N/A   Unknown
4:00 PM 65.8 °F 55.6 °F 69% 29.58 in - SW 17.3 mph 27.6 mph N/A   Unknown
5:00 PM 63.1 °F 56.3 °F 78% 29.57 in - SW 19.6 mph 33.4 mph N/A   Unknown
6:00 PM 61.2 °F 52.7 °F 74% 29.54 in - SW 25.3 mph 41.4 mph N/A   Unknown
7:00 PM 60.3 °F 55.0 °F 83% 29.51 in - SW 17.3 mph 27.6 mph 0.01 in   Unknown
8:00 PM 60 °F 55 °F 79% 29.46 in - SSW 17.3 mph - -  
8:00 PM 59.7 °F 55.2 °F 85% 29.46 in - SSW 17.3 mph 32.2 mph N/A   Unknown
9:00 PM 59.0 °F 55.4 °F 88% 29.40 in - SSW 11.5 mph 17.3 mph 0.01 in   Unknown
10:00 PM 60.4 °F 56.8 °F 88% 29.34 in - SSW 18.4 mph 28.8 mph 0.04 in   Unknown
11:00 PM 61.0 °F 57.4 °F 88% 29.29 in - SW 20.7 mph 29.9 mph 0.05 in   Unknown